Cut Bank, MT

7:52 PM MST on December 08, 2019 (GMT -0700)
Cut Bank Municipal

Weather History for KCTB - November, 2019

Change the Weather History Date:

Sunday, November 17, 2019

  Actual Average Record
Temperature  
Mean Temperature 48 °F 30 °F  
Max Temperature 54 °F 40 °F 63 °F (1936)
Min Temperature 42 °F 20 °F -25 °F (1955)
Degree Days  
Heating Degree Days 17 35  
Month to date heating degree days 569 545  
Since 1 July heating degree days 2068 1769  
Cooling Degree Days 0 0  
Month to date cooling degree days 0 0  
Year to date cooling degree days 106 162  
Moisture  
Dew Point 33 °F    
Average Humidity 57    
Maximum Humidity 66    
Minimum Humidity 50    
Precipitation  
Precipitation 0.00 in 0.02 in 0.38 in (1981)
Month to date precipitation 0.22 0.22  
Year to date precipitation 11.95 10.54  
Snow  
Snow - - - ()
Snow Depth 0.00 in    
Sea Level Pressure  
Sea Level Pressure 29.79 in    
Wind  
Wind Speed 27 mph ()    
Max Wind Speed 48 mph    
Max Gust Speed 56 mph    
Visibility 10.0 miles    
Events      
T = Trace of Precipitation, MM = Missing Value Source: Averaged Metar Reports

Daily Weather History Graph

Daily Weather History Graph

Search for Another Location

Airport or City:

Astronomy

Nov. 17, 2019 Rise Set
Actual Time 7:40 AM MST 4:47 PM MST
Civil Twilight 7:06 AM MST 5:22 PM MST
Nautical Twilight 6:27 AM MST 6:00 PM MST
Astronomical Twilight 5:50 AM MST 6:37 PM MST
Moon 9:22 PM MST (11/17) 12:36 PM MST (11/17)
Length of Visible Light 10h 16m
Length of Day
9h 07m
Waning Gibbous, 73% of the Moon is Illuminated
Nov 17
Waning Gibbous
Nov 19
Last Quarter
Nov 26
New
Dec 3
First Quarter
Dec 11
Full

Hourly Weather History & Observations

Time (MST) Temp. Windchill Dew Point Humidity Pressure Visibility Wind Dir Wind Speed Gust Speed Precip Events Conditions
12:56 AM 42.1 °F 32.1 °F 27.0 °F 55% 29.92 in 10.0 mi WSW 25.3 mph 35.7 mph N/A   Clear
1:56 AM 44.1 °F 33.8 °F 28.0 °F 53% 29.90 in 10.0 mi WSW 31.1 mph 41.4 mph N/A   Clear
2:56 AM 44.1 °F 35.2 °F 28.0 °F 53% 29.88 in 10.0 mi WSW 23.0 mph - N/A   Clear
3:56 AM 43.0 °F 32.5 °F 28.9 °F 58% 29.86 in 10.0 mi West 29.9 mph 40.3 mph N/A   Clear
4:56 AM 43.0 °F 32.2 °F 30.0 °F 60% 29.86 in 10.0 mi West 32.2 mph 46.0 mph N/A   Clear
5:56 AM 44.1 °F 32.3 °F 30.0 °F 58% 29.82 in 10.0 mi West 42.6 mph 51.8 mph N/A   Clear
6:56 AM 45.0 °F 34.7 °F 30.9 °F 58% 29.85 in 10.0 mi WSW 33.4 mph 43.7 mph N/A   Clear
7:56 AM 46.0 °F 36.9 °F 32.0 °F 58% 29.81 in 10.0 mi West 28.8 mph 36.8 mph N/A   Clear
8:56 AM 48.9 °F - 34.0 °F 56% 29.81 in 10.0 mi WSW 25.3 mph 33.4 mph N/A   Clear
9:56 AM 51.1 °F - 35.1 °F 54% 29.83 in 10.0 mi WSW 17.3 mph - N/A   Clear
10:56 AM 53.1 °F - 36.0 °F 52% 29.77 in 10.0 mi WSW 31.1 mph - N/A   Clear
11:56 AM 52.0 °F - 35.1 °F 53% 29.78 in 10.0 mi WSW 28.8 mph 41.4 mph N/A   Partly Cloudy
12:56 PM 51.1 °F - 34.0 °F 52% 29.75 in 10.0 mi WSW 33.4 mph 43.7 mph N/A   Clear
1:56 PM 50.0 °F - 34.0 °F 54% 29.73 in 10.0 mi West 35.7 mph 44.9 mph N/A   Clear
2:56 PM 52.0 °F - 34.0 °F 50% 29.73 in 10.0 mi WSW 34.5 mph 44.9 mph N/A   Clear
3:56 PM 51.1 °F - 34.0 °F 52% 29.75 in 10.0 mi West 32.2 mph 41.4 mph N/A   Clear
4:56 PM 46.9 °F - 34.0 °F 61% 29.74 in 10.0 mi WSW 38.0 mph 49.5 mph N/A   Clear
5:56 PM 46.9 °F - 35.1 °F 63% 29.75 in 10.0 mi WSW 38.0 mph 52.9 mph N/A   Clear
6:56 PM 46.9 °F - 35.1 °F 63% 29.76 in 10.0 mi WSW 39.1 mph 44.9 mph N/A   Clear
7:56 PM 46.0 °F 36.5 °F 35.1 °F 66% 29.78 in 10.0 mi West 31.1 mph 39.1 mph N/A   Clear
8:56 PM 46.9 °F - 35.1 °F 63% 29.73 in 10.0 mi WSW 36.8 mph 46.0 mph N/A   Clear
9:56 PM 46.9 °F - 34.0 °F 61% 29.70 in 10.0 mi West 40.3 mph 49.5 mph N/A   Clear
10:56 PM 46.9 °F - 33.1 °F 59% 29.77 in 10.0 mi West 38.0 mph 50.6 mph N/A   Clear
11:56 PM 46.0 °F 36.2 °F 32.0 °F 58% 29.79 in 10.0 mi West 33.4 mph 43.7 mph N/A   Clear